contact:dominique.lefevre@mio.osupytheas.fr, maurice.libes@osupytheas.fr, didier.mallarino@osupytheas.fr
Project:EMSO http://www.emso-fr.org/EMSO-France
Depth: 2436.0 m
Title:EMSO Ligure Ouest : Data MII capteur MICROCAT
DateTime_Computer,Latitude,Longitude,Temperature,Conductivity,Pressure,DateTime_Instrument
DateTime_Computer,Latitude,Longitude,degC,S m-1,dbar,DateTime_Instrument
2019-08-31T00:00:17Z,42.805,6.029,13.3016,4.60005,2469.83,2019-8-31T02:00:39Z
2019-08-31T00:03:20Z,42.805,6.029,13.2998,4.60000,2469.867,2019-8-31T02:03:42Z
2019-08-31T00:06:24Z,42.805,6.029,13.3043,4.60006,2469.821,2019-8-31T02:06:46Z
2019-08-31T00:09:27Z,42.805,6.029,13.3026,4.59991,2469.844,2019-8-31T02:09:49Z
2019-08-31T00:12:30Z,42.805,6.029,13.3007,4.60001,2469.821,2019-8-31T02:12:52Z
2019-08-31T00:15:33Z,42.805,6.029,13.3017,4.60016,2469.821,2019-8-31T02:15:55Z
2019-08-31T00:18:37Z,42.805,6.029,13.3013,4.59997,2469.821,2019-8-31T02:18:58Z
2019-08-31T00:21:40Z,42.805,6.029,13.3001,4.59986,2469.844,2019-8-31T02:22:02Z
2019-08-31T00:24:43Z,42.805,6.029,13.3025,4.59992,2469.806,2019-8-31T02:25:05Z
2019-08-31T00:27:46Z,42.805,6.029,13.3001,4.59990,2469.797,2019-8-31T02:28:08Z
2019-08-31T00:30:49Z,42.805,6.029,13.3036,4.59993,2469.806,2019-8-31T02:31:11Z
2019-08-31T00:33:52Z,42.805,6.029,13.3011,4.60006,2469.821,2019-8-31T02:34:14Z
2019-08-31T00:36:56Z,42.805,6.029,13.3011,4.59996,2469.773,2019-8-31T02:37:18Z
2019-08-31T00:39:59Z,42.805,6.029,13.3018,4.59991,2469.783,2019-8-31T02:40:21Z
2019-08-31T00:43:02Z,42.805,6.029,13.3008,4.59981,2469.797,2019-8-31T02:43:24Z
2019-08-31T00:46:05Z,42.805,6.029,13.3004,4.60006,2469.797,2019-8-31T02:46:27Z
2019-08-31T00:49:09Z,42.805,6.029,13.2991,4.59999,2469.83,2019-8-31T02:49:30Z
2019-08-31T00:52:12Z,42.805,6.029,13.3032,4.60015,2469.797,2019-8-31T02:52:34Z
2019-08-31T00:55:15Z,42.805,6.029,13.3007,4.59992,2469.76,2019-8-31T02:55:37Z
2019-08-31T00:58:18Z,42.805,6.029,13.3014,4.59995,2469.811,2019-8-31T02:58:40Z
2019-08-31T01:01:21Z,42.805,6.029,13.2994,4.59998,2469.797,2019-8-31T03:01:43Z
2019-08-31T01:04:25Z,42.805,6.029,13.3019,4.60005,2469.797,2019-8-31T03:04:46Z
2019-08-31T01:07:28Z,42.805,6.029,13.3015,4.60003,2469.797,2019-8-31T03:07:50Z
2019-08-31T01:10:31Z,42.805,6.029,13.3003,4.59993,2469.76,2019-8-31T03:10:53Z
2019-08-31T01:13:34Z,42.805,6.029,13.2991,4.60010,2469.797,2019-8-31T03:13:56Z
2019-08-31T01:16:37Z,42.805,6.029,13.2968,4.60000,2469.783,2019-8-31T03:16:59Z
2019-08-31T01:19:41Z,42.805,6.029,13.2977,4.59997,2469.737,2019-8-31T03:20:02Z
2019-08-31T01:22:44Z,42.805,6.029,13.2956,4.60004,2469.783,2019-8-31T03:23:06Z
2019-08-31T01:25:47Z,42.805,6.029,13.2957,4.60014,2469.783,2019-8-31T03:26:09Z
2019-08-31T01:28:50Z,42.805,6.029,13.2963,4.60009,2469.737,2019-8-31T03:29:12Z
2019-08-31T01:31:53Z,42.805,6.029,13.2990,4.59993,2469.773,2019-8-31T03:32:15Z
2019-08-31T01:34:57Z,42.805,6.029,13.2957,4.59993,2469.773,2019-8-31T03:35:19Z
2019-08-31T01:38:00Z,42.805,6.029,13.2982,4.59981,2469.773,2019-8-31T03:38:22Z
2019-08-31T01:41:03Z,42.805,6.029,13.2958,4.59989,2469.76,2019-8-31T03:41:25Z
2019-08-31T01:44:06Z,42.805,6.029,13.2974,4.60011,2469.797,2019-8-31T03:44:28Z
2019-08-31T01:47:10Z,42.805,6.029,13.2976,4.59996,2469.773,2019-8-31T03:47:31Z
2019-08-31T01:50:13Z,42.805,6.029,13.2959,4.60014,2469.75,2019-8-31T03:50:35Z
2019-08-31T01:53:16Z,42.805,6.029,13.2987,4.59994,2469.76,2019-8-31T03:53:38Z
2019-08-31T01:56:19Z,42.805,6.029,13.3035,4.59998,2469.737,2019-8-31T03:56:41Z
2019-08-31T01:59:22Z,42.805,6.029,13.3003,4.60000,2469.773,2019-8-31T03:59:44Z
2019-08-31T02:02:26Z,42.805,6.029,13.3053,4.60003,2469.76,2019-8-31T04:02:48Z
2019-08-31T02:05:29Z,42.805,6.029,13.3023,4.59995,2469.76,2019-8-31T04:05:51Z
2019-08-31T02:08:32Z,42.805,6.029,13.3031,4.60001,2469.737,2019-8-31T04:08:54Z
2019-08-31T02:11:35Z,42.805,6.029,13.2967,4.60000,2469.75,2019-8-31T04:11:57Z
2019-08-31T02:14:38Z,42.805,6.029,13.2959,4.59976,2469.773,2019-8-31T04:15:00Z
2019-08-31T02:17:42Z,42.805,6.029,13.2958,4.59992,2469.76,2019-8-31T04:18:04Z
2019-08-31T02:20:45Z,42.805,6.029,13.2958,4.59984,2469.76,2019-8-31T04:21:07Z
2019-08-31T02:23:48Z,42.805,6.029,13.2957,4.59980,2469.76,2019-8-31T04:24:10Z
2019-08-31T02:26:51Z,42.805,6.029,13.2967,4.59987,2469.773,2019-8-31T04:27:13Z
2019-08-31T02:29:54Z,42.805,6.029,13.2971,4.60000,2469.727,2019-8-31T04:30:16Z
2019-08-31T02:32:58Z,42.805,6.029,13.2968,4.60001,2469.75,2019-8-31T04:33:19Z
2019-08-31T02:36:01Z,42.805,6.029,13.2954,4.60002,2469.773,2019-8-31T04:36:23Z
2019-08-31T02:39:04Z,42.805,6.029,13.2951,4.59982,2469.797,2019-8-31T04:39:26Z
2019-08-31T02:42:07Z,42.805,6.029,13.2954,4.59977,2469.75,2019-8-31T04:42:29Z
2019-08-31T02:45:11Z,42.805,6.029,13.2955,4.59976,2469.76,2019-8-31T04:45:33Z
2019-08-31T02:48:14Z,42.805,6.029,13.2957,4.59976,2469.713,2019-8-31T04:48:36Z
2019-08-31T02:51:17Z,42.805,6.029,13.2958,4.59972,2469.75,2019-8-31T04:51:39Z
2019-08-31T02:54:20Z,42.805,6.029,13.2956,4.59979,2469.737,2019-8-31T04:54:42Z
2019-08-31T02:57:24Z,42.805,6.029,13.2964,4.59976,2469.76,2019-8-31T04:57:46Z
2019-08-31T03:00:27Z,42.805,6.029,13.2955,4.59976,2469.737,2019-8-31T05:00:49Z
2019-08-31T03:03:30Z,42.805,6.029,13.2957,4.59985,2469.806,2019-8-31T05:03:52Z
2019-08-31T03:06:34Z,42.805,6.029,13.2969,4.59980,2469.75,2019-8-31T05:06:56Z
2019-08-31T03:09:37Z,42.805,6.029,13.3024,4.60001,2469.75,2019-8-31T05:09:59Z
2019-08-31T03:12:40Z,42.805,6.029,13.2976,4.60006,2469.773,2019-8-31T05:13:02Z
2019-08-31T03:15:43Z,42.805,6.029,13.2961,4.60000,2469.797,2019-8-31T05:16:05Z
2019-08-31T03:18:46Z,42.805,6.029,13.3009,4.59999,2469.773,2019-8-31T05:19:08Z
2019-08-31T03:21:50Z,42.805,6.029,13.2976,4.59983,2469.773,2019-8-31T05:22:12Z
2019-08-31T03:24:53Z,42.805,6.029,13.2956,4.59991,2469.773,2019-8-31T05:25:15Z
2019-08-31T03:27:56Z,42.805,6.029,13.2955,4.59980,2469.76,2019-8-31T05:28:18Z
2019-08-31T03:30:59Z,42.805,6.029,13.2955,4.59976,2469.773,2019-8-31T05:31:21Z
2019-08-31T03:34:02Z,42.805,6.029,13.2964,4.59976,2469.737,2019-8-31T05:34:24Z
2019-08-31T03:37:06Z,42.805,6.029,13.2981,4.59977,2469.76,2019-8-31T05:37:28Z
2019-08-31T03:40:09Z,42.805,6.029,13.2959,4.59973,2469.76,2019-8-31T05:40:31Z
2019-08-31T03:43:12Z,42.805,6.029,13.2962,4.59982,2469.76,2019-8-31T05:43:34Z
2019-08-31T03:46:15Z,42.805,6.029,13.3012,4.59986,2469.737,2019-8-31T05:46:37Z
2019-08-31T03:49:19Z,42.805,6.029,13.2967,4.59997,2469.727,2019-8-31T05:49:40Z
2019-08-31T03:52:22Z,42.805,6.029,13.2962,4.59989,2469.737,2019-8-31T05:52:44Z
2019-08-31T03:55:25Z,42.805,6.029,13.2960,4.59993,2469.76,2019-8-31T05:55:47Z
2019-08-31T03:58:28Z,42.805,6.029,13.2967,4.59994,2469.783,2019-8-31T05:58:50Z
2019-08-31T04:01:31Z,42.805,6.029,13.2967,4.59991,2469.797,2019-8-31T06:01:53Z
2019-08-31T04:04:35Z,42.805,6.029,13.2958,4.60001,2469.773,2019-8-31T06:04:57Z
2019-08-31T04:07:38Z,42.805,6.029,13.2968,4.59983,2469.783,2019-8-31T06:08:00Z
2019-08-31T04:10:41Z,42.805,6.029,13.2957,4.59966,2469.797,2019-8-31T06:11:03Z
2019-08-31T04:13:44Z,42.805,6.029,13.2958,4.59969,2469.783,2019-8-31T06:14:06Z
2019-08-31T04:16:47Z,42.805,6.029,13.2952,4.59978,2469.797,2019-8-31T06:17:09Z
2019-08-31T04:19:51Z,42.805,6.029,13.2954,4.59973,2469.821,2019-8-31T06:20:12Z
2019-08-31T04:22:54Z,42.805,6.029,13.2955,4.59967,2469.821,2019-8-31T06:23:16Z
2019-08-31T04:25:57Z,42.805,6.029,13.2955,4.59966,2469.783,2019-8-31T06:26:19Z
2019-08-31T04:29:00Z,42.805,6.029,13.2958,4.59963,2469.797,2019-8-31T06:29:22Z
2019-08-31T04:32:03Z,42.805,6.029,13.2960,4.59965,2469.806,2019-8-31T06:32:25Z
2019-08-31T04:35:07Z,42.805,6.029,13.2953,4.59965,2469.806,2019-8-31T06:35:29Z
2019-08-31T04:38:10Z,42.805,6.029,13.2958,4.59966,2469.83,2019-8-31T06:38:32Z
2019-08-31T04:41:13Z,42.805,6.029,13.2955,4.59964,2469.806,2019-8-31T06:41:35Z
2019-08-31T04:44:16Z,42.805,6.029,13.2957,4.59965,2469.844,2019-8-31T06:44:38Z
2019-08-31T04:47:19Z,42.805,6.029,13.2957,4.59964,2469.853,2019-8-31T06:47:41Z
2019-08-31T04:50:23Z,42.805,6.029,13.2957,4.59962,2469.806,2019-8-31T06:50:45Z
2019-08-31T04:53:26Z,42.805,6.029,13.2960,4.59963,2469.867,2019-8-31T06:53:48Z
2019-08-31T04:56:29Z,42.805,6.029,13.2957,4.59961,2469.83,2019-8-31T06:56:51Z
2019-08-31T04:59:32Z,42.805,6.029,13.2960,4.59962,2469.867,2019-8-31T06:59:54Z
2019-08-31T05:02:36Z,42.805,6.029,13.2958,4.59961,2469.853,2019-8-31T07:02:57Z
2019-08-31T05:05:39Z,42.805,6.029,13.2960,4.59960,2469.806,2019-8-31T07:06:01Z
2019-08-31T05:08:42Z,42.805,6.029,13.2953,4.59959,2469.83,2019-8-31T07:09:04Z
2019-08-31T05:11:45Z,42.805,6.029,13.2958,4.59961,2469.867,2019-8-31T07:12:07Z
2019-08-31T05:14:48Z,42.805,6.029,13.2959,4.59964,2469.867,2019-8-31T07:15:10Z
2019-08-31T05:17:52Z,42.805,6.029,13.2953,4.59959,2469.89,2019-8-31T07:18:14Z
2019-08-31T05:20:55Z,42.805,6.029,13.2955,4.59963,2469.876,2019-8-31T07:21:17Z
2019-08-31T05:23:58Z,42.805,6.029,13.2955,4.59961,2469.853,2019-8-31T07:24:20Z
2019-08-31T05:27:01Z,42.805,6.029,13.2958,4.59966,2469.89,2019-8-31T07:27:23Z
2019-08-31T05:30:04Z,42.805,6.029,13.2957,4.59963,2469.876,2019-8-31T07:30:26Z
2019-08-31T05:33:08Z,42.805,6.029,13.2956,4.59961,2469.914,2019-8-31T07:33:30Z
2019-08-31T05:36:11Z,42.805,6.029,13.2953,4.59960,2469.853,2019-8-31T07:36:33Z
2019-08-31T05:39:14Z,42.805,6.029,13.2956,4.59961,2469.9,2019-8-31T07:39:36Z
2019-08-31T05:42:17Z,42.805,6.029,13.2955,4.59959,2469.876,2019-8-31T07:42:39Z
2019-08-31T05:45:21Z,42.805,6.029,13.2955,4.59962,2469.853,2019-8-31T07:45:42Z
2019-08-31T05:48:24Z,42.805,6.029,13.2958,4.59963,2469.937,2019-8-31T07:48:46Z
2019-08-31T05:51:27Z,42.805,6.029,13.2956,4.59965,2469.914,2019-8-31T07:51:49Z
2019-08-31T05:54:30Z,42.805,6.029,13.2957,4.59961,2469.9,2019-8-31T07:54:52Z
2019-08-31T05:57:33Z,42.805,6.029,13.2957,4.59967,2469.9,2019-8-31T07:57:55Z
2019-08-31T06:00:37Z,42.805,6.029,13.2960,4.59968,2469.89,2019-8-31T08:00:59Z
2019-08-31T06:03:40Z,42.805,6.029,13.2954,4.59968,2469.9,2019-8-31T08:04:02Z
2019-08-31T06:06:43Z,42.805,6.029,13.2954,4.59961,2469.89,2019-8-31T08:07:05Z
2019-08-31T06:09:46Z,42.805,6.029,13.2957,4.59963,2469.89,2019-8-31T08:10:08Z
2019-08-31T06:12:50Z,42.805,6.029,13.2958,4.59964,2469.923,2019-8-31T08:13:11Z
2019-08-31T06:15:53Z,42.805,6.029,13.2954,4.59962,2469.937,2019-8-31T08:16:15Z
2019-08-31T06:18:56Z,42.805,6.029,13.2958,4.59972,2469.9,2019-8-31T08:19:18Z
2019-08-31T06:21:59Z,42.805,6.029,13.2958,4.59968,2469.923,2019-8-31T08:22:21Z
2019-08-31T06:25:02Z,42.805,6.029,13.2956,4.59968,2469.947,2019-8-31T08:25:24Z
2019-08-31T06:28:06Z,42.805,6.029,13.2958,4.59968,2469.96,2019-8-31T08:28:28Z
2019-08-31T06:31:09Z,42.805,6.029,13.2968,4.59968,2469.947,2019-8-31T08:31:31Z
2019-08-31T06:34:12Z,42.805,6.029,13.2954,4.59971,2469.947,2019-8-31T08:34:34Z
2019-08-31T06:37:15Z,42.805,6.029,13.2954,4.59968,2469.937,2019-8-31T08:37:37Z
2019-08-31T06:40:19Z,42.805,6.029,13.2957,4.59959,2469.96,2019-8-31T08:40:40Z
2019-08-31T06:43:22Z,42.805,6.029,13.2957,4.59961,2469.923,2019-8-31T08:43:44Z
2019-08-31T06:46:25Z,42.805,6.029,13.2954,4.59965,2469.923,2019-8-31T08:46:47Z
2019-08-31T06:49:28Z,42.805,6.029,13.2954,4.59960,2469.947,2019-8-31T08:49:50Z
2019-08-31T06:52:31Z,42.805,6.029,13.2959,4.59959,2469.96,2019-8-31T08:52:53Z
2019-08-31T06:55:35Z,42.805,6.029,13.2954,4.59961,2469.96,2019-8-31T08:55:57Z
2019-08-31T06:58:38Z,42.805,6.029,13.2960,4.59966,2469.947,2019-8-31T08:59:00Z
2019-08-31T07:01:41Z,42.805,6.029,13.2956,4.59966,2469.937,2019-8-31T09:02:03Z
2019-08-31T07:04:44Z,42.805,6.029,13.2958,4.59964,2469.947,2019-8-31T09:05:06Z
2019-08-31T07:07:48Z,42.805,6.029,13.2954,4.59964,2469.923,2019-8-31T09:08:10Z
2019-08-31T07:10:51Z,42.805,6.029,13.2956,4.59972,2469.923,2019-8-31T09:11:13Z
2019-08-31T07:13:54Z,42.805,6.029,13.2956,4.59963,2469.96,2019-8-31T09:14:16Z
2019-08-31T07:16:57Z,42.805,6.029,13.2960,4.59964,2469.96,2019-8-31T09:17:19Z
2019-08-31T07:20:01Z,42.805,6.029,13.2959,4.59966,2469.96,2019-8-31T09:20:23Z
2019-08-31T07:23:04Z,42.805,6.029,13.2957,4.59964,2469.96,2019-8-31T09:23:26Z
2019-08-31T07:26:07Z,42.805,6.029,13.2955,4.59966,2469.947,2019-8-31T09:26:29Z
2019-08-31T07:29:10Z,42.805,6.029,13.2959,4.59971,2469.96,2019-8-31T09:29:32Z
2019-08-31T07:32:14Z,42.805,6.029,13.2959,4.59979,2469.947,2019-8-31T09:32:35Z
2019-08-31T07:35:17Z,42.805,6.029,13.2957,4.59969,2469.923,2019-8-31T09:35:39Z
2019-08-31T07:38:20Z,42.805,6.029,13.2957,4.59966,2469.96,2019-8-31T09:38:42Z
2019-08-31T07:41:23Z,42.805,6.029,13.2955,4.59961,2469.947,2019-8-31T09:41:45Z
2019-08-31T07:44:27Z,42.805,6.029,13.2958,4.59966,2469.97,2019-8-31T09:44:48Z
2019-08-31T07:47:30Z,42.805,6.029,13.2955,4.59965,2469.923,2019-8-31T09:47:52Z
2019-08-31T07:50:33Z,42.805,6.029,13.2958,4.59967,2469.923,2019-8-31T09:50:55Z
2019-08-31T07:53:36Z,42.805,6.029,13.2956,4.59966,2469.97,2019-8-31T09:53:58Z
2019-08-31T07:56:40Z,42.805,6.029,13.2956,4.59968,2469.947,2019-8-31T09:57:02Z
2019-08-31T07:59:43Z,42.805,6.029,13.2953,4.59960,2469.923,2019-8-31T10:00:05Z
2019-08-31T08:02:46Z,42.805,6.029,13.2956,4.59961,2469.947,2019-8-31T10:03:08Z
2019-08-31T08:05:49Z,42.805,6.029,13.2958,4.59967,2469.947,2019-8-31T10:06:11Z
2019-08-31T08:08:53Z,42.805,6.029,13.2957,4.59962,2469.97,2019-8-31T10:09:15Z
2019-08-31T08:11:56Z,42.805,6.029,13.2954,4.59963,2469.937,2019-8-31T10:12:18Z
2019-08-31T08:14:59Z,42.805,6.029,13.2954,4.59960,2469.923,2019-8-31T10:15:21Z
2019-08-31T08:18:02Z,42.805,6.029,13.2954,4.59962,2469.947,2019-8-31T10:18:24Z
2019-08-31T08:21:06Z,42.805,6.029,13.2958,4.59963,2469.923,2019-8-31T10:21:28Z
2019-08-31T08:24:09Z,42.805,6.029,13.2958,4.59966,2469.937,2019-8-31T10:24:31Z
2019-08-31T08:27:12Z,42.805,6.029,13.2953,4.59960,2469.947,2019-8-31T10:27:34Z
2019-08-31T08:30:15Z,42.805,6.029,13.2953,4.59967,2469.947,2019-8-31T10:30:37Z
2019-08-31T08:33:19Z,42.805,6.029,13.2957,4.59968,2469.96,2019-8-31T10:33:41Z
2019-08-31T08:36:22Z,42.805,6.029,13.2958,4.59969,2469.923,2019-8-31T10:36:44Z
2019-08-31T08:39:25Z,42.805,6.029,13.2956,4.59967,2469.923,2019-8-31T10:39:47Z
2019-08-31T08:42:28Z,42.805,6.029,13.2955,4.59964,2469.96,2019-8-31T10:42:50Z
2019-08-31T08:45:31Z,42.805,6.029,13.2955,4.59966,2469.947,2019-8-31T10:45:53Z
2019-08-31T08:48:35Z,42.805,6.029,13.2955,4.59960,2469.96,2019-8-31T10:48:57Z
2019-08-31T08:51:38Z,42.805,6.029,13.2958,4.59966,2469.923,2019-8-31T10:52:00Z
2019-08-31T08:54:41Z,42.805,6.029,13.2958,4.59966,2469.947,2019-8-31T10:55:03Z
2019-08-31T08:57:44Z,42.805,6.029,13.2961,4.59969,2469.923,2019-8-31T10:58:06Z
2019-08-31T09:00:48Z,42.805,6.029,13.2956,4.59962,2469.914,2019-8-31T11:01:10Z
2019-08-31T09:03:51Z,42.805,6.029,13.2955,4.59958,2469.923,2019-8-31T11:04:13Z
2019-08-31T09:06:54Z,42.805,6.029,13.2960,4.59964,2469.9,2019-8-31T11:07:16Z
2019-08-31T09:09:57Z,42.805,6.029,13.2962,4.59968,2469.923,2019-8-31T11:10:19Z
2019-08-31T09:13:01Z,42.805,6.029,13.2961,4.59961,2469.923,2019-8-31T11:13:22Z
2019-08-31T09:16:04Z,42.805,6.029,13.2954,4.59961,2469.9,2019-8-31T11:16:26Z
2019-08-31T09:19:07Z,42.805,6.029,13.2956,4.59961,2469.923,2019-8-31T11:19:29Z
2019-08-31T09:22:10Z,42.805,6.029,13.2956,4.59962,2469.876,2019-8-31T11:22:32Z
2019-08-31T09:25:13Z,42.805,6.029,13.2956,4.59961,2469.914,2019-8-31T11:25:35Z
2019-08-31T09:28:17Z,42.805,6.029,13.2957,4.59962,2469.9,2019-8-31T11:28:38Z
2019-08-31T09:31:20Z,42.805,6.029,13.2957,4.59961,2469.923,2019-8-31T11:31:42Z
2019-08-31T09:34:23Z,42.805,6.029,13.2958,4.59966,2469.9,2019-8-31T11:34:45Z
2019-08-31T09:37:26Z,42.805,6.029,13.2957,4.59963,2469.9,2019-8-31T11:37:48Z
2019-08-31T09:40:29Z,42.805,6.029,13.2952,4.59965,2469.89,2019-8-31T11:40:51Z
2019-08-31T09:43:33Z,42.805,6.029,13.2957,4.59964,2469.853,2019-8-31T11:43:54Z
2019-08-31T09:46:36Z,42.805,6.029,13.2957,4.59978,2469.914,2019-8-31T11:46:58Z
2019-08-31T09:49:39Z,42.805,6.029,13.2957,4.59966,2469.914,2019-8-31T11:50:01Z
2019-08-31T09:52:42Z,42.805,6.029,13.2957,4.59972,2469.876,2019-8-31T11:53:04Z
2019-08-31T09:55:46Z,42.805,6.029,13.2957,4.59970,2469.863,2019-8-31T11:56:08Z
2019-08-31T09:58:49Z,42.805,6.029,13.2962,4.59966,2469.876,2019-8-31T11:59:11Z
2019-08-31T10:01:52Z,42.805,6.029,13.2959,4.59967,2469.914,2019-8-31T12:02:14Z
2019-08-31T10:04:55Z,42.805,6.029,13.2958,4.59965,2469.853,2019-8-31T12:05:17Z
2019-08-31T10:07:58Z,42.805,6.029,13.2958,4.59963,2469.853,2019-8-31T12:08:20Z
2019-08-31T10:11:02Z,42.805,6.029,13.2957,4.59963,2469.89,2019-8-31T12:11:24Z
2019-08-31T10:14:05Z,42.805,6.029,13.2956,4.59965,2469.876,2019-8-31T12:14:27Z
2019-08-31T10:17:08Z,42.805,6.029,13.2953,4.59966,2469.853,2019-8-31T12:17:30Z
2019-08-31T10:20:11Z,42.805,6.029,13.2957,4.59971,2469.876,2019-8-31T12:20:33Z
2019-08-31T10:23:14Z,42.805,6.029,13.2957,4.59968,2469.867,2019-8-31T12:23:36Z
2019-08-31T10:26:18Z,42.805,6.029,13.2956,4.59964,2469.876,2019-8-31T12:26:40Z
2019-08-31T10:29:21Z,42.805,6.029,13.2958,4.59968,2469.867,2019-8-31T12:29:43Z
2019-08-31T10:32:24Z,42.805,6.029,13.2956,4.59967,2469.844,2019-8-31T12:32:46Z
2019-08-31T10:35:27Z,42.805,6.029,13.2956,4.59972,2469.853,2019-8-31T12:35:49Z
2019-08-31T10:38:30Z,42.805,6.029,13.2954,4.59976,2469.83,2019-8-31T12:38:52Z
2019-08-31T10:41:34Z,42.805,6.029,13.2954,4.59979,2469.83,2019-8-31T12:41:56Z
2019-08-31T10:44:37Z,42.805,6.029,13.2956,4.59983,2469.83,2019-8-31T12:44:59Z
2019-08-31T10:47:40Z,42.805,6.029,13.2957,4.59976,2469.844,2019-8-31T12:48:02Z
2019-08-31T10:50:43Z,42.805,6.029,13.2952,4.59969,2469.867,2019-8-31T12:51:05Z
2019-08-31T10:53:46Z,42.805,6.029,13.2955,4.59973,2469.844,2019-8-31T12:54:08Z
2019-08-31T10:56:50Z,42.805,6.029,13.2955,4.59985,2469.853,2019-8-31T12:57:12Z
2019-08-31T10:59:53Z,42.805,6.029,13.2955,4.59986,2469.844,2019-8-31T13:00:15Z
2019-08-31T11:02:56Z,42.805,6.029,13.2956,4.59989,2469.821,2019-8-31T13:03:18Z
2019-08-31T11:05:59Z,42.805,6.029,13.2992,4.59988,2469.806,2019-8-31T13:06:21Z
2019-08-31T11:09:02Z,42.805,6.029,13.2964,4.59983,2469.821,2019-8-31T13:09:24Z
2019-08-31T11:12:06Z,42.805,6.029,13.2966,4.59995,2469.83,2019-8-31T13:12:28Z
2019-08-31T11:15:09Z,42.805,6.029,13.2960,4.60009,2469.806,2019-8-31T13:15:31Z
2019-08-31T11:18:12Z,42.805,6.029,13.3007,4.60007,2469.844,2019-8-31T13:18:34Z
2019-08-31T11:21:15Z,42.805,6.029,13.2996,4.60000,2469.83,2019-8-31T13:21:37Z
2019-08-31T11:24:19Z,42.805,6.029,13.3004,4.59995,2469.783,2019-8-31T13:24:40Z
2019-08-31T11:27:22Z,42.805,6.029,13.2971,4.60024,2469.783,2019-8-31T13:27:44Z
2019-08-31T11:30:25Z,42.805,6.029,13.3014,4.60009,2469.783,2019-8-31T13:30:47Z
2019-08-31T11:33:28Z,42.805,6.029,13.2985,4.60016,2469.806,2019-8-31T13:33:50Z
2019-08-31T11:36:31Z,42.805,6.029,13.2976,4.59991,2469.806,2019-8-31T13:36:53Z
2019-08-31T11:39:35Z,42.805,6.029,13.2961,4.59986,2469.806,2019-8-31T13:39:57Z
2019-08-31T11:42:38Z,42.805,6.029,13.2957,4.59996,2469.821,2019-8-31T13:43:00Z
2019-08-31T11:45:41Z,42.805,6.029,13.2959,4.59983,2469.797,2019-8-31T13:46:03Z
2019-08-31T11:48:44Z,42.805,6.029,13.2963,4.59986,2469.783,2019-8-31T13:49:06Z
2019-08-31T11:51:47Z,42.805,6.029,13.2955,4.59988,2469.821,2019-8-31T13:52:09Z
2019-08-31T11:54:51Z,42.805,6.029,13.2956,4.59981,2469.783,2019-8-31T13:55:13Z
2019-08-31T11:57:54Z,42.805,6.029,13.3027,4.59975,2469.806,2019-8-31T13:58:16Z
2019-08-31T12:00:57Z,42.805,6.029,13.2984,4.59986,2469.783,2019-8-31T14:01:19Z
2019-08-31T12:04:00Z,42.805,6.029,13.2983,4.59999,2469.773,2019-8-31T14:04:22Z
2019-08-31T12:07:04Z,42.805,6.029,13.2959,4.60005,2469.783,2019-8-31T14:07:26Z
2019-08-31T12:10:07Z,42.805,6.029,13.2957,4.59986,2469.797,2019-8-31T14:10:29Z
2019-08-31T12:13:10Z,42.805,6.029,13.2966,4.59985,2469.797,2019-8-31T14:13:32Z
2019-08-31T12:16:13Z,42.805,6.029,13.3009,4.59991,2469.76,2019-8-31T14:16:35Z
2019-08-31T12:19:16Z,42.805,6.029,13.2963,4.60003,2469.76,2019-8-31T14:19:38Z
2019-08-31T12:22:20Z,42.805,6.029,13.3051,4.60010,2469.76,2019-8-31T14:22:42Z
2019-08-31T12:25:23Z,42.805,6.029,13.2973,4.59999,2469.773,2019-8-31T14:25:45Z
2019-08-31T12:28:26Z,42.805,6.029,13.2957,4.59989,2469.773,2019-8-31T14:28:48Z
2019-08-31T12:31:29Z,42.805,6.029,13.2961,4.59992,2469.797,2019-8-31T14:31:51Z
2019-08-31T12:34:32Z,42.805,6.029,13.2958,4.59986,2469.76,2019-8-31T14:34:54Z
2019-08-31T12:37:36Z,42.805,6.029,13.2973,4.59986,2469.75,2019-8-31T14:37:58Z
2019-08-31T12:40:39Z,42.805,6.029,13.2988,4.59986,2469.75,2019-8-31T14:41:01Z
2019-08-31T12:43:42Z,42.805,6.029,13.2964,4.59998,2469.75,2019-8-31T14:44:04Z
2019-08-31T12:46:45Z,42.805,6.029,13.2958,4.60015,2469.75,2019-8-31T14:47:07Z
2019-08-31T12:49:48Z,42.805,6.029,13.2973,4.59987,2469.75,2019-8-31T14:50:10Z
2019-08-31T12:52:52Z,42.805,6.029,13.2967,4.59991,2469.76,2019-8-31T14:53:14Z
2019-08-31T12:55:55Z,42.805,6.029,13.3010,4.59988,2469.76,2019-8-31T14:56:17Z
2019-08-31T12:58:58Z,42.805,6.029,13.3020,4.60007,2469.727,2019-8-31T14:59:20Z
2019-08-31T13:02:01Z,42.805,6.029,13.3028,4.59998,2469.76,2019-8-31T15:02:23Z
2019-08-31T13:05:04Z,42.805,6.029,13.3018,4.60015,2469.75,2019-8-31T15:05:26Z
2019-08-31T13:08:08Z,42.805,6.029,13.3015,4.59994,2469.75,2019-8-31T15:08:29Z
2019-08-31T13:11:11Z,42.805,6.029,13.3011,4.59985,2469.727,2019-8-31T15:11:33Z
2019-08-31T13:14:14Z,42.805,6.029,13.3000,4.60006,2469.727,2019-8-31T15:14:36Z
2019-08-31T13:17:17Z,42.805,6.029,13.2979,4.60001,2469.737,2019-8-31T15:17:39Z
2019-08-31T13:20:20Z,42.805,6.029,13.3005,4.60004,2469.713,2019-8-31T15:20:42Z
2019-08-31T13:23:24Z,42.805,6.029,13.3019,4.59992,2469.727,2019-8-31T15:23:45Z
2019-08-31T13:26:27Z,42.805,6.029,13.2966,4.60011,2469.75,2019-8-31T15:26:49Z
2019-08-31T13:29:30Z,42.805,6.029,13.2965,4.60039,2469.727,2019-8-31T15:29:52Z
2019-08-31T13:32:33Z,42.805,6.029,13.2986,4.59988,2469.737,2019-8-31T15:32:55Z
2019-08-31T13:35:36Z,42.805,6.029,13.2981,4.59996,2469.727,2019-8-31T15:35:58Z
2019-08-31T13:38:40Z,42.805,6.029,13.3003,4.59994,2469.713,2019-8-31T15:39:02Z
2019-08-31T13:41:43Z,42.805,6.029,13.2988,4.59991,2469.713,2019-8-31T15:42:05Z
2019-08-31T13:44:46Z,42.805,6.029,13.2997,4.60017,2469.727,2019-8-31T15:45:08Z
2019-08-31T13:47:49Z,42.805,6.029,13.2968,4.60009,2469.69,2019-8-31T15:48:11Z
2019-08-31T13:50:52Z,42.805,6.029,13.2978,4.59994,2469.727,2019-8-31T15:51:14Z
2019-08-31T13:53:56Z,42.805,6.029,13.2955,4.60019,2469.727,2019-8-31T15:54:18Z
2019-08-31T13:56:59Z,42.805,6.029,13.2958,4.60001,2469.713,2019-8-31T15:57:21Z
2019-08-31T14:00:02Z,42.805,6.029,13.2960,4.59978,2469.727,2019-8-31T16:00:24Z
2019-08-31T14:03:05Z,42.805,6.029,13.2961,4.59989,2469.713,2019-8-31T16:03:27Z
2019-08-31T14:06:09Z,42.805,6.029,13.3019,4.59984,2469.713,2019-8-31T16:06:31Z
2019-08-31T14:09:12Z,42.805,6.029,13.2960,4.59998,2469.727,2019-8-31T16:09:34Z
2019-08-31T14:12:15Z,42.805,6.029,13.2957,4.59983,2469.727,2019-8-31T16:12:37Z
2019-08-31T14:15:18Z,42.805,6.029,13.2963,4.59986,2469.713,2019-8-31T16:15:40Z
2019-08-31T14:18:21Z,42.805,6.029,13.2952,4.59980,2469.713,2019-8-31T16:18:43Z
2019-08-31T14:21:25Z,42.805,6.029,13.2957,4.59979,2469.704,2019-8-31T16:21:47Z
2019-08-31T14:24:28Z,42.805,6.029,13.2959,4.59976,2469.713,2019-8-31T16:24:50Z
2019-08-31T14:27:31Z,42.805,6.029,13.2957,4.59973,2469.737,2019-8-31T16:27:53Z
2019-08-31T14:30:34Z,42.805,6.029,13.2957,4.59971,2469.737,2019-8-31T16:30:56Z
2019-08-31T14:33:38Z,42.805,6.029,13.2961,4.59975,2469.713,2019-8-31T16:33:59Z
2019-08-31T14:36:41Z,42.805,6.029,13.2956,4.59969,2469.713,2019-8-31T16:37:03Z
2019-08-31T14:39:44Z,42.805,6.029,13.2958,4.59978,2469.75,2019-8-31T16:40:06Z
2019-08-31T14:42:47Z,42.805,6.029,13.2959,4.59977,2469.704,2019-8-31T16:43:09Z
2019-08-31T14:45:51Z,42.805,6.029,13.2958,4.59977,2469.737,2019-8-31T16:46:12Z
2019-08-31T14:48:54Z,42.805,6.029,13.2958,4.59971,2469.737,2019-8-31T16:49:16Z
2019-08-31T14:51:57Z,42.805,6.029,13.2958,4.59979,2469.727,2019-8-31T16:52:19Z
2019-08-31T14:55:00Z,42.805,6.029,13.2955,4.59975,2469.75,2019-8-31T16:55:22Z
2019-08-31T14:58:04Z,42.805,6.029,13.2959,4.59970,2469.75,2019-8-31T16:58:26Z
2019-08-31T15:01:07Z,42.805,6.029,13.2957,4.59966,2469.75,2019-8-31T17:01:29Z
2019-08-31T15:04:10Z,42.805,6.029,13.2957,4.59968,2469.713,2019-8-31T17:04:32Z
2019-08-31T15:07:13Z,42.805,6.029,13.2958,4.59966,2469.727,2019-8-31T17:07:35Z
2019-08-31T15:10:16Z,42.805,6.029,13.2957,4.59964,2469.75,2019-8-31T17:10:38Z
2019-08-31T15:13:20Z,42.805,6.029,13.2956,4.59967,2469.75,2019-8-31T17:13:42Z